User: anonymous   Login
Location: Fort Wayne
(41.1310°N, 85.1290°W)
Time: 04:33:31
(UTC-04:00)
Language:

BREEZE-M DEB (TANK) - Orbit

View from above orbital plane
View from above orbital plane
View from above satellite
View from above satellite

Ground track
Ground track

The orbit data is extracted from the following two-line orbital elements,

1 27821U 03024B   16125.39607611  .00010481  00000-0  84096-3 0  9991
2 27821  49.5714 280.9064 4968262  78.5297 331.3745  5.72585615256953
Epoch (UTC): 04 May 2016 09:30:20
Eccentricity: 0.4968262
inclination: 49.5714°
perigee height: 263 km
apogee height: 13377 km
right ascension of ascending node: 280.9064°
argument of perigee: 78.5297°
revolutions per day: 5.72585615
mean anomaly at epoch: 331.3745°
orbit number at epoch: 25695

The dashed part of the orbit path shows where the satellite is in the earth's shadow,  

DLR